Location: Newark
(47.3150°N, 5.1150°E)
Time: 02:14:09
(UTC+00:00)

AO-7 - Pass Details

Date: 23 December 2019
Orbit: 1440 x 1458 km, 101.8° (Epoch: 23 January)

Event Time Altitude Azimuth Distance (km) Brightness Sun altitude
Rises 04:01:16 0° 17° (NNE) 4,567 ? -33.2°
Reaches altitude 10° 04:04:03 10° 17° (NNE) 3,587 ? -32.8°
Maximum altitude 04:12:24 78° 293° (WNW) 1,491 ? -31.3°
Enters shadow 04:14:39 54° 221° (SW) 1,730 ? -31.0°
